This is the latest recevied weather packets stored in our database for station/object DM4XI-13. If no packets are shown the sender has not sent any weather packets the latest 10 day(s).
| Time | Temp. | Humidity | Pressure | Rain* | Wind** | Luminosity | Snow |
|---|---|---|---|---|---|---|---|
| 1778116605 | 10.56° C | 93% | 1006.9 hPa | 0 mm | 0.45 m/s, 246° | 0 W/m² | - |
| 1778116545 | 10.56° C | 93% | 1007.2 hPa | 0 mm | 0 m/s | 0 W/m² | - |
| 1778116483 | 10.56° C | 93% | 1007.1 hPa | 0 mm | 0.89 m/s, 179° | 0 W/m² | - |
| 1778116423 | 10.56° C | 93% | 1007.1 hPa | 0 mm | 0.45 m/s, 178° | 0 W/m² | - |
| 1778116361 | 10.56° C | 93% | 1007 hPa | 0 mm | 0.89 m/s, 230° | 0 W/m² | - |
| 1778116300 | 10.56° C | 94% | 1007.1 hPa | 0 mm | 0.45 m/s, 229° | 0 W/m² | - |
| 1778116239 | 10.56° C | 94% | 1007 hPa | 0 mm | 0 m/s | 0 W/m² | - |
| 1778116178 | 10.56° C | 94% | 1007.1 hPa | 0 mm | 0.89 m/s, 203° | 0 W/m² | - |
| 1778116117 | 10.56° C | 94% | 1007.1 hPa | 0 mm | 0.89 m/s, 176° | 0 W/m² | - |
| 1778116056 | 10.56° C | 94% | 1007.1 hPa | 0 mm | 0.89 m/s, 198° | 0 W/m² | - |
| 1778115995 | 10.56° C | 94% | 1007.1 hPa | 0 mm | 0.45 m/s, 259° | 0 W/m² | - |
| 1778115934 | 10.56° C | 94% | 1007.1 hPa | 0 mm | 0.89 m/s, 179° | 0 W/m² | - |
| 1778115873 | 10.56° C | 94% | 1007.1 hPa | 0 mm | 0 m/s | 0 W/m² | - |
| 1778115812 | 10.56° C | 94% | 1007.1 hPa | 0 mm | 0.45 m/s, 174° | 0 W/m² | - |
| 1778115751 | 10.56° C | 95% | 1007.2 hPa | 0 mm | 1.34 m/s, 173° | 0 W/m² | - |
| 1778115690 | 10.56° C | 95% | 1007.1 hPa | 0 mm | 0.45 m/s, 177° | 0 W/m² | - |
| 1778115630 | 10.56° C | 95% | 1007.2 hPa | 0 mm | 0.45 m/s, 216° | 0 W/m² | - |
| 1778115568 | 10.56° C | 95% | 1007.1 hPa | 0 mm | 0.45 m/s, 182° | 0 W/m² | - |
| 1778115507 | 10.56° C | 95% | 1007.4 hPa | 0 mm | 0 m/s | 0 W/m² | - |
| 1778115446 | 10.56° C | 95% | 1007.2 hPa | 0 mm | 0.45 m/s, 227° | 0 W/m² | - |
| 1778115385 | 10.56° C | 95% | 1007.3 hPa | 0 mm | 0 m/s | 0 W/m² | - |
| 1778115324 | 10.56° C | 95% | 1007.3 hPa | 0 mm | 0 m/s | 0 W/m² | - |
| 1778115263 | 10.56° C | 96% | 1007.3 hPa | 0 mm | 0.89 m/s, 185° | 0 W/m² | - |
| 1778115202 | 10.56° C | 96% | 1007.2 hPa | 0 mm | 0.89 m/s, 200° | 0 W/m² | - |
| 1778115141 | 10.56° C | 96% | 1007.2 hPa | 0 mm | 0.45 m/s, 190° | 0 W/m² | - |
* Rain latest hour (hover to see other rain measurements)
** Current wind speed in m/s (hover to see current wind gust speed)